Regional Weather Roundup
Issued by NWS Upton, NY

Current Version | Previous Version | Text Only | Print | Product List | Glossary On
Versions: 1 2 3 4 5 6 7 8 9 10 11 12 13 14 15 16 17 18 19 20 21 22 23 24 25 26 27 28
000 ASUS41 KOKX 272104 RWROKX REGIONAL WEATHER ROUNDUP NATIONAL WEATHER SERVICE NEW YORK NY 500 PM EDT WED JUL 27 2016 NOTE: "FAIR" INDICATES FEW OR NO CLOUDS BELOW 12,000 FEET WITH NO SIGNIFICANT WEATHER AND/OR OBSTRUCTIONS TO VISIBILITY. NYZ071-072-176-178-NJZ106-104-272200- NEW YORK CITY METRO AREA CITY SKY/WX TMP DP RH WIND PRES REMARKS Central Park MOSUNNY 87 63 44 W5 29.92F LaGuardia APRT MOSUNNY 94 63 35 SE10 29.88F HX 95 Kennedy INTL MOSUNNY 85 64 49 S15 29.91F Newark/Liberty MOSUNNY 91 62 37 CALM 29.89F HX 91 Bronx Bot Gard N/A 91 57 31 W6 29.91R HX 90 Wall St Helipt CLEAR 88 64 45 SW7 29.90F Teterboro SUNNY 92 57 30 W8 29.87F HX 90 $$ NYZ177-179-078>081-272200- LONG ISLAND NEW YORK CITY SKY/WX TMP DP RH WIND PRES REMARKS Farmingdale SUNNY 86 65 49 S10 29.91F MacArthur/ISP MOSUNNY 84 67 56 S9 29.90F Shirley SUNNY 84 67 56 S12 29.92S Riverhead NOT AVBL Westhampton SUNNY 82 65 56 S10 29.94S Southhampton N/A 81 70 69 S9 29.89S Bridgehampton N/A 86 64 48 S1 29.91F East Hampton FAIR 82 62 49 S8 29.91F Montauk N/A 82 64 54 S7 29.92F $$ NYZ052-065-067-272200- HUDSON VALLEY CITY SKY/WX TMP DP RH WIND PRES REMARKS White Plains MOSUNNY 89 59 36 NW8 29.90F Newburgh MOSUNNY 88 61 40 NW7 29.93F Montgomery MOSUNNY 89 60 37 CALM 29.91F Poughkeepsie SUNNY 91 59 33 W6 29.88F HX 90 Albany MOSUNNY 89 57 33 W8 29.89F $$ NJZ001-105-106-008-010-013-015-019>022-104-272200- NEW JERSEY CITY SKY/WX TMP DP RH WIND PRES REMARKS Newark/Liberty MOSUNNY 91 62 37 CALM 29.89F HX 91 Teterboro SUNNY 92 57 30 W8 29.87F HX 90 Caldwell SUNNY 91 58 32 NW8 29.90F HX 90 Morristown MOSUNNY 86 64 48 N5 29.91S Somerville SUNNY 90 62 39 CALM 29.89F HX 90 Linden FAIR 91 57 31 CALM 29.91F HX 90 Sussex SUNNY 89 59 36 NW6 29.93S Abdover N/A 88 61 40 NE3 29.92F Trenton SUNNY 91 62 37 N3 29.90F HX 91 Millville MOSUNNY 87 75 67 VRB7 29.91S HX 96 Atlantic City MOSUNNY 84 72 67 S8 29.91F Wrightstown NOT AVBL Toms River SUNNY 86 70 58 SE8 29.92S HX 90 Belmar SUNNY 85 68 56 SE8 29.93F $$ PAZ047>061-062-071-272200- EASTERN PENNSYLVANIA CITY SKY/WX TMP DP RH WIND PRES REMARKS Philadelphia MOSUNNY 92 63 38 VRB3 29.90F HX 93 Allentown SUNNY 90 60 36 CALM 29.92F Scranton MOSUNNY 88 57 34 SW6 29.94F $$ CTZ002-004>006-009-010-012-RIZ004-006-007-MAZ004-011-015-272200- SOUTHERN NEW ENGLAND IN CT CITY SKY/WX TMP DP RH WIND PRES REMARKS Bradley INTL MOSUNNY 94 55 26 NW7 29.87F HX 92 Hartford MOSUNNY 94 57 28 VRB6 29.86F HX 92 Danbury SUNNY 88 57 34 SW3 29.92F Wtrbury/Oxford MOSUNNY 86 57 37 CALM 29.95S Bridgeport SUNNY 89 61 38 S12 29.89F Meriden SUNNY 92 56 29 W6 29.88F HX 90 New Haven SUNNY 84 63 49 S10 29.90F Chester FAIR 86 63 45 S9 29.90F Groton SUNNY 81 66 60 S10 29.89F Wilimantic NOT AVBL IN RI CITY SKY/WX TMP DP RH WIND PRES REMARKS Providence MOSUNNY 88 63 43 S17 29.88F Block Island SUNNY 80 65 59 SW15 29.92S Westerly SUNNY 84 59 42 S14 29.91F IN MA CITY SKY/WX TMP DP RH WIND PRES REMARKS Boston NOT AVBL Worchester SUNNY 87 54 32 W7 29.91F Westfield SUNNY 92 53 26 NW13 29.87F Provincetown SUNNY 83 66 56 S9 29.90F Nantucket SUNNY 76 67 73 S7 29.92F $$ ANZ330-335-338-340-345-350-353-355-272200- COASTAL MARINE OBSERVATIONS STATION/POSITION TIME SKY/WX TEMP WIND PRES VSBY WAVE AIR SEA DIR/SP/G HT/PER (UTC) (F) (DEG/KT/KT) (MB) (MI) (FT/S) NY HARB ENTRANCE 1950 79 78 170/ 10/ 10 1012.9 1/ 5 20S FIRE ISLAND 1950 77 78 180/ 8/ 8 1013.0 2/ 6 GREAT SOUTH BAY 2000 78 83 190/ 12/ 14 N/A 23 SSW MONTAUK P 1950 76 72 200/ 6/ 6 1013.9 2/ 6 15 E BARNEGAT LI 2022 78 N/A 2/ 6 HUDSON CANYON 1950 79 81 1013.6 2/ 6 KINGS POINT 2000 88 74 1012.4 EXECUTION ROCKS 2000 87 90/ 4/ 6 N/A CENTRAL LI SOUND 2000 80 78 220/ 6/ 8 N/A 0 EASTERN LI SOUND 2000 73 69 170/ 8/ 10 N/A ROBBINS REEF 2000 78 170/ 17/ 19 1012.0 $$ >>>>>>>>>>>>>>>>>>>>>>>>>>>> KEY <<<<<<<<<<<<<<<<<<<<<<<<<<< > < > SKY/WX - Sky Condition/Present Weather < > TMP - Temperature in Fahrenheit < > DP - Dew Point in Fahrenheit < > RH - Relative Humidity in Percent < > WIND - Direction (from) and Speed in MPH < > PRES - Mean Sea Level Pressure (inches of Hg) < > WCI - Wind Chill Index < > VSB - VISIBILITY IN MILES < > HX - HEAT INDEX < > TC - TEMPERATURE IN CELSIUS < > VRB - VARIABLE WIND DIRECTION < > < >>>>>>>>>>>>>>>>>>>>>>>>>>>> KEY <<<<<<<<<<<<<<<<<<<<<<<<<<<

USA.gov is the U.S. government's official web portal to all federal, state and local government web resources and services.